This is the latest recevied weather packets stored in our database for station/object KD5FHA. If no packets are shown the sender has not sent any weather packets the latest 10 day(s).
| Time | Temp. | Humidity | Pressure | Rain* | Wind** | Luminosity | Snow |
|---|---|---|---|---|---|---|---|
| 1777579746 | 16.67° C | 92% | 1014.1 hPa | 0 mm | - | 55 W/m² | - |
| 1777579444 | 16.67° C | 92% | 1014.6 hPa | 0 mm | - | 43 W/m² | - |
| 1777579139 | 16.67° C | 93% | 1014.5 hPa | 0 mm | - | 47 W/m² | - |
| 1777578839 | 16.67° C | 93% | 1014.8 hPa | 0 mm | - | 54 W/m² | - |
| 1777578535 | 16.67° C | 93% | 1014.6 hPa | 0 mm | - | 73 W/m² | - |
| 1777578230 | 16.67° C | 93% | 1014.1 hPa | 0 mm | - | 56 W/m² | - |
| 1777577925 | 16.67° C | 93% | 1013.9 hPa | 0 mm | - | 55 W/m² | - |
| 1777577621 | 16.67° C | 93% | 1013.5 hPa | 0 mm | - | 69 W/m² | - |
| 1777577318 | 16.67° C | 94% | 1013.9 hPa | 0 mm | - | 57 W/m² | - |
| 1777577014 | 16.67° C | 94% | 1013.8 hPa | 0 mm | - | 66 W/m² | - |
| 1777576712 | 16.67° C | 94% | 1013.8 hPa | 0 mm | - | 63 W/m² | - |
| 1777576410 | 16.67° C | 94% | 1013.7 hPa | 0 mm | - | 60 W/m² | - |
| 1777576107 | 16.67° C | 94% | 1013.3 hPa | 0 mm | - | 67 W/m² | - |
| 1777575803 | 16.67° C | 94% | 1013.2 hPa | 0 mm | - | 97 W/m² | - |
| 1777575500 | 16.67° C | 94% | 1012.9 hPa | 0 mm | - | 79 W/m² | - |
| 1777575195 | 16.67° C | 94% | 1012.7 hPa | 0 mm | - | 86 W/m² | - |
| 1777574891 | 16.67° C | 95% | 1012.5 hPa | 0 mm | - | 94 W/m² | - |
| 1777574589 | 16.67° C | 95% | 1012.8 hPa | 0 mm | - | 94 W/m² | - |
| 1777574285 | 16.67° C | 95% | 1013.1 hPa | 0 mm | - | 111 W/m² | - |
| 1777573980 | 16.67° C | 95% | 1013.4 hPa | 0 mm | - | 80 W/m² | - |
| 1777573675 | 16.67° C | 96% | 1013.2 hPa | 0 mm | - | 126 W/m² | - |
| 1777573371 | 16.67° C | 96% | 1013.6 hPa | 0 mm | - | 96 W/m² | - |
| 1777573067 | 16.67° C | 96% | 1013.8 hPa | 0 mm | - | 69 W/m² | - |
| 1777572764 | 16.67° C | 96% | 1013.7 hPa | 0 mm | - | 158 W/m² | - |
| 1777572459 | 16.67° C | 96% | 1014 hPa | 0 mm | - | 112 W/m² | - |
* Rain latest hour (hover to see other rain measurements)
** Current wind speed in m/s (hover to see current wind gust speed)